[[{"header":{"parameterUnit":"m.s-1","parameterCategory":1,"la1":30.2991,"la2":30.254,"lo1":-89.0895,"lo2":-89.0444,"dy":0.0017,"dx":0.0017,"nx":28,"ny":28,"refTime":"2024-03-05T03:00:00:Z","depth":0,"parameterNumber":2,"parameterNumberName":"U-component_of_WINDS"},"data":[0,0,0,0,0,0,0,0,0,0,0,0,0,0,0,0,0,0,0,0,0,0,0,0,0,0,0,0,0,0,0,0,0,0,0,0,0,0,0,0,0,0,0,0,0,0,0,0,0,0,0,0,0,0,0,0,0,0,-1.037,-1.037,0,-1.036,-1.036,-1.036,-1.0328,-1.0327,-1.0326,-1.0326,-1.0316,-1.0316,-1.0317,0,0,0,0,0,0,0,0,0,0,0,0,0,-1.0364,-1.0364,-1.037,-1.037,-1.037,-1.036,-1.036,-1.036,-1.0328,-1.0327,-1.0326,-1.0325,-1.0316,-1.0316,-1.0317,0,0,0,0,0,0,0,0,0,0,0,0,0,-1.0361,-1.0364,-1.037,-1.0353,-1.0351,-1.036,-1.036,-1.036,-1.0328,-1.0327,-1.0326,-1.0325,-1.0316,-1.0316,-1.0317,-1.0342,0,0,-1.0319,-1.0319,0,0,0,0,0,0,0,0,-1.0362,-1.0362,-1.0356,-1.0354,-1.0352,-1.0344,-1.0354,-1.0354,-1.0328,-1.0337,-1.0326,-1.0325,-1.0326,-1.0326,-1.0326,-1.0341,-1.0341,-1.0319,-1.0319,-1.0319,-1.0319,0,0,0,0,0,0,0,-1.0362,-1.0362,-1.0366,-1.0356,-1.0354,-1.0346,-1.0345,-1.0354,-1.0338,-1.0336,-1.0334,-1.0333,-1.0325,-1.0326,-1.0326,-1.0341,-1.0319,-1.0319,-1.032,-1.032,-1.0378,-1.0379,0,0,0,0,0,0,-1.0364,-1.0362,-1.0367,-1.0366,-1.0354,-1.0347,-1.0346,-1.0348,-1.0338,-1.0335,-1.0334,-1.0332,-1.0325,-1.0325,-1.0325,-1.0355,-1.0319,-1.032,-1.032,-1.0377,-1.0378,-1.038,0,0,0,0,0,0,-1.0364,-1.0365,-1.0367,-1.0364,-1.0363,-1.0348,-1.0351,-1.0348,-1.0349,-1.0336,-1.0333,-1.0338,-1.0324,-1.0325,-1.0338,-1.0354,-1.032,-1.0321,-1.0375,-1.0377,-1.0379,-1.0414,0,0,0,0,0,0,-1.0364,-1.0365,-1.0374,-1.0364,-1.0364,-1.038,-1.0352,-1.0349,-1.035,-1.0347,-1.0338,-1.0336,-1.0324,-1.0338,-1.0339,-1.0354,-1.0321,-1.0374,-1.0376,-1.0378,-1.0411,-1.0417,-1.0422,0,0,0,0,0,-1.0364,-1.0384,-1.0375,-1.0375,-1.0374,-1.0381,-1.0381,-1.0366,-1.0351,-1.0361,-1.0353,-1.0336,-1.0353,-1.0339,-1.0341,-1.0356,-1.0373,-1.0376,-1.0378,-1.0409,-1.0416,-1.0421,0,0,0,0,0,0,-1.0396,-1.0382,-1.0372,-1.0389,-1.0386,-1.0375,-1.0386,-1.0373,-1.0374,-1.0371,-1.0353,-1.0351,-1.0368,-1.0364,-1.0349,-1.0381,-1.036,-1.0363,-1.0383,-1.0389,-1.0394,-1.0395,-1.0322,0,0,0,0,0,-1.0405,-1.0411,-1.0399,-1.0415,-1.0415,-1.0401,-1.0403,-1.0392,-1.0389,-1.0387,-1.038,-1.0378,-1.0383,-1.0386,-1.0389,-1.0411,-1.0409,-1.0423,-1.0428,-1.0432,-1.0435,-1.0447,-1.0453,-1.0388,-1.0388,-1.0388,0,0,-1.0424,-1.0417,-1.0422,-1.0422,-1.0418,-1.0426,-1.04,-1.0409,-1.0414,-1.0389,-1.0401,-1.0397,-1.0393,-1.0411,-1.0419,-1.0408,-1.0453,-1.0435,-1.0439,-1.0439,-1.0451,-1.0457,-1.0462,-1.039,-1.039,-1.039,0,0,-1.0461,-1.0457,-1.047,-1.0468,-1.0464,-1.0455,-1.0458,-1.045,-1.0445,-1.0458,-1.044,-1.0446,-1.0454,-1.0453,-1.0453,-1.0493,-1.0478,-1.0494,-1.052,-1.0533,-1.0538,-1.0542,-1.0557,-1.0563,-1.0497,-1.0497,-1.0497,0,-1.0485,-1.0495,-1.0479,-1.0489,-1.049,-1.0468,-1.0483,-1.0481,-1.0478,-1.048,-1.0468,-1.0479,-1.0474,-1.0493,-1.0503,-1.0503,-1.0507,-1.0495,-1.0539,-1.0543,-1.0547,-1.0561,-1.0566,-1.0499,-1.0499,-1.0499,-1.0499,0,-1.0525,-1.0532,-1.0544,-1.0542,-1.0544,-1.0557,-1.0544,-1.0548,-1.0538,-1.053,-1.0544,-1.0539,-1.0542,-1.0545,-1.0535,-1.0563,-1.0556,-1.0542,-1.052,-1.0555,-1.0568,-1.0573,-1.0502,-1.0502,-1.0501,-1.05,0,0,-1.0581,-1.0571,-1.0576,-1.0575,-1.057,-1.0575,-1.0588,-1.059,-1.0595,-1.0594,-1.0604,-1.0613,-1.06,-1.06,-1.059,-1.0601,-1.0634,-1.0585,-1.0585,-1.0594,-1.0665,-1.0676,-1.0682,-1.0624,-1.0625,-1.0626,-1.0666,0,-1.0617,-1.0636,-1.0623,-1.0645,-1.0652,-1.0633,-1.0643,-1.0642,-1.0636,-1.0642,-1.0635,-1.0641,-1.0624,-1.0624,-1.0634,-1.0627,-1.0648,-1.0624,-1.0634,-1.0635,-1.0635,-1.0689,-1.07,-1.0737,-1.0671,-1.0671,-1.0672,0,-1.0661,-1.0663,-1.0685,-1.068,-1.0682,-1.0692,-1.0694,-1.07,-1.0698,-1.0693,-1.0695,-1.0682,-1.0695,-1.0674,-1.0691,-1.0676,-1.0679,-1.0677,-1.0678,-1.0678,-1.0655,-1.0691,-1.0749,-1.0755,-1.068,-1.0679,-1.0678,0,-1.07,-1.0708,-1.0723,-1.0723,-1.0717,-1.0725,-1.0722,-1.072,-1.0723,-1.0725,-1.0727,-1.0731,-1.0733,-1.0737,-1.0726,-1.0712,-1.0745,-1.0723,-1.0742,-1.0742,-1.0749,-1.0749,-1.0809,-1.0752,-1.0752,-1.0752,-1.0751,0,-1.0742,-1.0756,-1.0741,-1.075,-1.0766,-1.0752,-1.0769,-1.0765,-1.0763,-1.0772,-1.0755,-1.0764,-1.0749,-1.0756,-1.0748,-1.0764,-1.0765,-1.0762,-1.076,-1.0763,-1.0764,-1.0765,-1.0762,-1.0753,-1.0753,-1.0752,-1.0752,0,-1.0788,-1.0778,-1.0793,-1.0786,-1.0785,-1.0798,-1.0792,-1.0801,-1.0795,-1.0806,-1.0808,-1.0798,-1.0806,-1.0796,-1.0803,-1.0797,-1.0819,-1.0813,-1.082,-1.0818,-1.0837,-1.0836,-1.09,-1.0908,-1.0846,-1.0847,-1.0847,0,-1.0815,-1.0826,-1.0821,-1.0825,-1.0824,-1.0832,-1.0835,-1.0822,-1.0827,-1.0827,-1.0836,-1.0843,-1.0847,-1.0861,-1.0855,-1.0861,-1.0854,-1.0877,-1.0855,-1.0859,-1.0855,-1.0855,-1.0856,-1.0881,-1.0882,-1.0882,-1.0883,0,-1.0864,-1.0859,-1.0864,-1.0868,-1.0873,-1.0876,-1.0877,-1.0882,-1.0869,-1.0875,-1.0883,-1.0887,-1.0895,-1.0902,-1.0906,-1.0905,-1.0892,-1.089,-1.0895,-1.0898,-1.0902,-1.0901,-1.0832,-1.0888,-1.0888,-1.0887,-1.0887,-1.0887,-1.0901,-1.091,-1.0909,-1.0916,-1.0916,-1.0918,-1.0926,-1.0922,-1.0928,-1.0933,-1.0926,-1.0936,-1.0936,-1.0941,-1.0941,-1.0949,-1.094,-1.0946,-1.0948,-1.095,-1.0953,-1.0901,-1.095,-1.095,-1.095,-1.095,-1.095,0,-1.095,-1.0948,-1.0955,-1.0958,-1.0964,-1.0952,-1.0953,-1.0959,-1.0969,-1.0969,-1.0975,-1.0985,-1.0992,-1.0988,-1.0994,-1.1002,-1.0997,-1.1004,-1.1003,-1.1003,-1.0961,-1.0956,-1.1009,-1.1009,-1.1009,-1.1009,-1.1009,-1.1009,-1.0976,-1.0991,-1.0986,-1.1002,-1.1001,-1.1011,-1.1013,-1.1015,-1.1016,-1.1028,-1.1034,-1.1031,-1.103,-1.1037,-1.1044,-1.1042,-1.1046,-1.1055,-1.1052,-1.1012,-1.1006,-1.1001,-1.0996,-1.1056,-1.1056,-1.1094,-1.1094,-1.1094]},{"header":{"parameterUnit":"m.s-1","parameterCategory":1,"la1":30.2991,"la2":30.254,"lo1":-89.0895,"lo2":-89.0444,"dy":0.0017,"dx":0.0017,"nx":28,"ny":28,"refTime":"2024-03-05T03:00:00:Z","depth":0,"parameterNumber":3,"parameterNumberName":"V-component_of_WINDS"},"data":[0,0,0,0,0,0,0,0,0,0,0,0,0,0,0,0,0,0,0,0,0,0,0,0,0,0,0,0,0,0,0,0,0,0,0,0,0,0,0,0,0,0,0,0,0,0,0,0,0,0,0,0,0,0,0,0,0,0,1.3358,1.3357,0,1.3304,1.3303,1.3302,1.3296,1.3297,1.3298,1.3298,1.3242,1.3241,1.3239,0,0,0,0,0,0,0,0,0,0,0,0,0,1.3457,1.3455,1.3358,1.3357,1.3356,1.3304,1.3303,1.3302,1.3296,1.3297,1.3298,1.3298,1.3243,1.3241,1.3238,0,0,0,0,0,0,0,0,0,0,0,0,0,1.3409,1.3454,1.3358,1.3347,1.3346,1.3304,1.3303,1.3302,1.3296,1.3297,1.3298,1.3299,1.3244,1.3241,1.3238,1.3203,0,0,1.3229,1.3228,0,0,0,0,0,0,0,0,1.3412,1.3406,1.3349,1.3348,1.3346,1.3308,1.3318,1.3269,1.3296,1.3315,1.3298,1.3299,1.3263,1.3259,1.3247,1.3201,1.3198,1.3229,1.3227,1.3226,1.3225,0,0,0,0,0,0,0,1.3415,1.3408,1.3336,1.3348,1.3346,1.3345,1.3339,1.3308,1.3285,1.3313,1.3313,1.3306,1.3263,1.325,1.3246,1.3198,1.3229,1.3226,1.3224,1.3223,1.3122,1.3122,0,0,0,0,0,0,1.3421,1.3411,1.3338,1.3335,1.3382,1.3343,1.3336,1.3319,1.3286,1.3281,1.3306,1.3306,1.3255,1.3249,1.3244,1.3202,1.3226,1.3223,1.3221,1.3123,1.3122,1.3121,0,0,0,0,0,0,1.3423,1.3414,1.334,1.3373,1.3363,1.334,1.3321,1.3318,1.3305,1.328,1.3276,1.3297,1.3255,1.3248,1.3214,1.32,1.3221,1.3219,1.3124,1.3123,1.3122,1.3118,0,0,0,0,0,0,1.3426,1.3415,1.3401,1.3372,1.3361,1.3311,1.332,1.3316,1.33,1.33,1.327,1.3266,1.3255,1.3218,1.3211,1.3196,1.3216,1.3126,1.3124,1.3122,1.3119,1.3117,1.3115,0,0,0,0,0,1.3429,1.3401,1.34,1.3392,1.3343,1.331,1.3304,1.3291,1.3299,1.3285,1.3269,1.3267,1.3203,1.3215,1.3207,1.3191,1.3126,1.3124,1.3122,1.312,1.3117,1.3115,0,0,0,0,0,0,1.3428,1.3397,1.3396,1.3358,1.3337,1.3309,1.3291,1.3288,1.3264,1.3266,1.3251,1.3245,1.3212,1.3198,1.3212,1.3157,1.3165,1.3162,1.3167,1.3164,1.3161,1.3165,1.3214,0,0,0,0,0,1.3424,1.3399,1.3374,1.3343,1.3332,1.3314,1.3299,1.3291,1.3269,1.326,1.3241,1.322,1.3195,1.3178,1.3154,1.3118,1.3112,1.3103,1.31,1.3099,1.3095,1.3077,1.3073,1.3115,1.3115,1.3115,0,0,1.3414,1.3394,1.3379,1.3342,1.3325,1.33,1.3306,1.3279,1.3261,1.3255,1.3223,1.3209,1.3184,1.3149,1.3133,1.3136,1.3083,1.3096,1.3095,1.3093,1.3075,1.3071,1.3067,1.3113,1.3114,1.3114,0,0,1.3384,1.3366,1.3339,1.3323,1.3297,1.3285,1.3278,1.3252,1.3242,1.3209,1.3205,1.3184,1.314,1.3123,1.3109,1.3075,1.3073,1.3068,1.3055,1.3037,1.3034,1.3031,1.302,1.3016,1.3065,1.3065,1.3065,0,1.3375,1.3338,1.3326,1.33,1.3284,1.3279,1.3252,1.3236,1.3204,1.3193,1.3198,1.3145,1.3128,1.309,1.3082,1.307,1.3063,1.3071,1.3036,1.3032,1.3029,1.3019,1.3015,1.3064,1.3064,1.3064,1.3064,0,1.3329,1.3303,1.3285,1.3254,1.3236,1.321,1.3195,1.3179,1.3174,1.3162,1.3129,1.3109,1.3081,1.3071,1.3065,1.3033,1.3036,1.3038,1.3047,1.3025,1.3015,1.3011,1.3064,1.3064,1.3064,1.3064,0,0,1.3295,1.326,1.3254,1.3241,1.3213,1.3193,1.3167,1.314,1.3127,1.3105,1.3084,1.3049,1.3052,1.3035,1.3028,1.3012,1.2989,1.3017,1.3016,1.3013,1.2953,1.2952,1.2947,1.2987,1.2986,1.2986,1.2956,0,1.3263,1.3216,1.3206,1.3166,1.3143,1.3139,1.3117,1.3098,1.3087,1.3066,1.3053,1.3029,1.3034,1.3024,1.3009,1.2995,1.2976,1.2997,1.2968,1.2967,1.2974,1.2942,1.294,1.2912,1.2951,1.2951,1.295,0,1.3218,1.3196,1.3154,1.3131,1.3121,1.3101,1.3077,1.3057,1.3036,1.3029,1.3012,1.3007,1.2981,1.2992,1.2956,1.2971,1.2958,1.295,1.2949,1.2946,1.2957,1.2938,1.2903,1.2899,1.2944,1.2944,1.2945,0,1.3199,1.3159,1.3129,1.3118,1.309,1.3077,1.3065,1.3044,1.303,1.3009,1.2999,1.2976,1.2963,1.2945,1.2934,1.2942,1.29,1.2909,1.2894,1.2895,1.2885,1.2886,1.2848,1.2877,1.2877,1.2877,1.2877,0,1.3163,1.3138,1.3121,1.3102,1.3075,1.3064,1.3037,1.3025,1.3007,1.2987,1.2982,1.2964,1.295,1.293,1.2922,1.2895,1.2889,1.2883,1.2881,1.2883,1.2884,1.2875,1.2877,1.2876,1.2876,1.2876,1.2877,0,1.3137,1.3124,1.3092,1.3069,1.3062,1.3043,1.3024,1.3006,1.2996,1.2971,1.2964,1.2948,1.2924,1.2912,1.2882,1.2876,1.2846,1.2845,1.2853,1.2852,1.2839,1.284,1.2794,1.2787,1.282,1.282,1.282,0,1.3115,1.3096,1.3071,1.3058,1.3046,1.3024,1.3009,1.2998,1.2983,1.2959,1.2945,1.2922,1.2902,1.2865,1.285,1.2828,1.2827,1.2812,1.2823,1.2827,1.2827,1.2829,1.2827,1.281,1.2809,1.2809,1.2809,0,1.3078,1.3074,1.3053,1.303,1.3013,1.2994,1.2976,1.2966,1.2952,1.2936,1.2912,1.2897,1.2867,1.2844,1.2821,1.281,1.2807,1.2806,1.2801,1.2804,1.281,1.2807,1.2848,1.2807,1.2807,1.2807,1.2807,1.2807,1.3054,1.3038,1.3018,1.2996,1.2981,1.2965,1.2948,1.2936,1.2916,1.2891,1.2886,1.2861,1.2843,1.2812,1.28,1.2781,1.2784,1.2777,1.2775,1.2774,1.2774,1.2813,1.2776,1.2776,1.2776,1.2776,1.2776,0,1.3018,1.3006,1.2985,1.296,1.2943,1.2943,1.2924,1.2909,1.2887,1.287,1.2852,1.2825,1.2803,1.2788,1.2766,1.2754,1.2753,1.2749,1.275,1.2747,1.2772,1.2778,1.275,1.275,1.275,1.275,1.275,1.275,1.2997,1.2969,1.2963,1.2928,1.2916,1.2892,1.2881,1.2867,1.2853,1.2824,1.2806,1.2796,1.278,1.2758,1.2738,1.2734,1.2727,1.2723,1.2719,1.2742,1.2745,1.2748,1.2754,1.2721,1.2721,1.2697,1.2696,1.2696]}]]